Back to catalog

STARLINK-5502

AliveCommunicationsVLEO
NORAD 55644·PAYLOAD·🇺🇸 United States

Launched Feb 17, 2023 from Vandenberg Space Force Base

Loading…

Next Passes (next 24 hours)

TLE

FreshSource: CelesTrak SupGP

Epoch: Sep 14, 2026, 14:13 UTC

1 55644C 23021S   26257.59284722 -.00047220  00000+0 -39562-2 0  2573
2 55644  70.0014  68.2260 0003009 265.5158 170.6758 14.98364771    11

Track STARLINK-5502 in real time with AllMySat

Download on the App Store